Regional Weather Roundup
Issued by NWS Newport/Morehead, NC

Current Version | Previous Version | Graphics & Text | Print | Product List | Glossary Off
Versions: 1 2 3 4 5 6 7 8 9 10 11 12 13 14 15 16 17 18 19 20 21 22 23 24 25 26 27 28 29 30 31 32 33 34 35 36 37 38 39 40 41 42 43 44 45 46 47 48 49 50

000
ASUS42 KMHX 182322
RWRMHX
WEATHER ROUNDUP FOR EASTERN NORTH CAROLINA
NATIONAL WEATHER SERVICE NEWPORT/MOREHEAD CITY NC
600 PM EST THU DEC 18 2014

NOTE: "FAIR" INDICATES FEW OR NO CLOUDS BELOW 12,000 FEET
WITH NO SIGNIFICANT WEATHER AND/OR OBSTRUCTIONS TO VISIBILITY

NCZ015>017-031-032-045>047-102-103-190000-
NORTH COAST

CITY           SKY/WX    TMP DP  RH WIND       PRES   REMARKS
EDENTON        CLOUDY    42  34  74 CALM      30.10R
ELIZABETH CITY MOCLDY    42  30  62 SW5       30.10R
KITTY HAWK     CLOUDY    42  33  70 CALM      30.08S
MANTEO         CLOUDY    43  33  67 CALM      30.09S

$$

NCZ045>047-081-094-103-104-190000-
CENTRAL COAST

CITY           SKY/WX    TMP DP  RH WIND       PRES   REMARKS
FRISCO         PTCLDY    40  35  83 CALM      30.10R
SWANQUARTER      N/A     43 N/A N/A E2        30.06R

$$

NCZ095-097-098-100-101-190000-
SOUTHERN COAST

CITY           SKY/WX    TMP DP  RH WIND       PRES   REMARKS
BEAUFORT       CLEAR     44  34  67 E3        30.10R
CEDAR ISLAND     N/A     41 N/A N/A SE3       30.12S
JACKSONVILLE   CLEAR     44  36  73 CALM      30.10R
PINEY ISLAND   CLEAR     46  33  60 SE3       30.10R
WILMINGTON     CLEAR     45  36  70 NE3       30.09S


$$

NCZ011>013-027>030-043-044-078>080-089-090>093-098-190000-
COASTAL PLAIN

CITY           SKY/WX    TMP DP  RH WIND       PRES   REMARKS
AHOSKIE        PTCLDY    38  32  77 CALM      30.10S
CLINTON        CLEAR     42  36  79 CALM      30.11R
ELIZABETHTOWN  CLEAR     47  32  56 CALM      30.10R
GOLDSBORO      CLEAR     44  37  73 CALM      30.09R
GREENVILLE     MOCLDY    45  32  61 CALM      30.12R
HAVELOCK       CLEAR     42  34  73 SE3       30.10R
KENANSVILLE    CLEAR     39  33  81 CALM      30.12R
KINSTON        CLEAR     41  34  75 CALM      30.11R
NEW BERN       CLEAR     43  33  68 CALM      30.10R
RICHLANDS      CLEAR     39  32  75 CALM      30.11R
ROCKY MOUNT    CLOUDY    43  34  70 CALM      30.10R
WASHINGTON     PTCLDY    41  33  71 CALM      30.10R
WHITEVILLE     PTCLDY    47  33  57 CALM      30.09R

$$

AMZ130-135-150-152-154-156-158-170-250-252-270-ANZ085-086-088-633-658-670-190000-
MARINE OBSERVATIONS

STATION/POSITION TIME  TEMP    WIND        PRES    WAVE   SWELL
                       AIR SEA DIR/SP/G            HT/PER HT/PER
                 (UTC) (F)     (DEG/KT/KT) (MB)    (FT/S) (FT/S)
CHESAPEAKE LIGHT 2300   42     340/  7/  7 1019.3
64 E VA BEACH    2300   44 55  320/ 14/ 17 1018.1    4/ 6   2/11
DUCK             2300   43 48   70/  1/  2 1018.0
2 E DUCK         2300      48                N/A     3/ 6
10 NE DUCK       2300      52                N/A     4/ 6
OREGON INLET     2300   43 51   CALM  /  1 1018.9
13E OREGON INLT  2300      53                N/A     4/ 7
HATTERAS CG      2300   45 54   80/  1/  2 1019.5
DIAMOND BUOY     2300   47                 1019.2    3/ 7
17 S OCRACOKE    NOT AVBL
CAPE LOOKOUT     2300   48      30/  4/  5 1019.2
BEAUFORT LAB     2300   46 54   90/  6/  6 1017.8
30 SE NEW RIVER  2300   52 60   80/  4/  6 1019.3    2/ 5   2/ 5
5 SE WRIGHTSVLE  2300   49 55  130/  6/  8 1018.9
225 S CAPE HAT   2159   68 72  350/  6/  8 1017.8    3/ 5   3/ 5
41 SE CHARLESTON 2300   60 72  300/  4/  6 1018.1    2/10   2/10

$$



USA.gov is the U.S. government's official web portal to all federal, state and local government web resources and services.